• In Deutschland
  • Länderverzeichnis
  • Für 7 Tage
  • Wassertemperatur
  • Satellitenkarten
  • Wetterkarte
  • Widgets
  • user-avatar
    Anmelden

    Stündliche Wetter Santo Anastácio

    Heute, 24 November, Freitag

    Zeit Temperatur Niederschläge Wind Luftdruck Luftfeuchtigkeit
    00:00 +26°C° 0 mm 2 m/S 724 mmHg 72%
    01:00 +25°C° 0 mm 2 m/S 724 mmHg 73%
    02:00 +25°C° 0 mm 2 m/S 724 mmHg 75%
    03:00 +25°C° 0 mm 3 m/S 724 mmHg 74%
    04:00 +24°C° 0 mm 3 m/S 725 mmHg 76%
    05:00 +24°C° 0 mm 3 m/S 725 mmHg 79%
    06:00 +22°C° 0 mm 3 m/S 725 mmHg 81%
    07:00 +25°C° 0 mm 3 m/S 726 mmHg 76%
    08:00 +27°C° 0 mm 3 m/S 726 mmHg 71%
    09:00 +29°C° 0 mm 3 m/S 727 mmHg 67%
    10:00 +31°C° 0 mm 3 m/S 727 mmHg 61%
    11:00 +33°C° 0 mm 3 m/S 727 mmHg 54%
    12:00 +34°C° 0 mm 2 m/S 727 mmHg 48%
    13:00 +35°C° 0 mm 2 m/S 726 mmHg 45%
    14:00 +36°C° 0 mm 2 m/S 726 mmHg 43%
    15:00 +36°C° 0 mm 2 m/S 725 mmHg 40%
    16:00 +35°C° 0 mm 2 m/S 725 mmHg 43%
    17:00 +34°C° 0 mm 2 m/S 724 mmHg 47%
    18:00 +34°C° 0 mm 2 m/S 724 mmHg 50%
    19:00 +31°C° 0 mm 2 m/S 724 mmHg 51%
    20:00 +30°C° 0 mm 2 m/S 724 mmHg 53%
    21:00 +28°C° 0 mm 2 m/S 725 mmHg 54%
    22:00 +28°C° 0 mm 2 m/S 725 mmHg 56%
    23:00 +27°C° 0 mm 2 m/S 725 mmHg 57%

    Morgen, 25 November, Samstag

    Zeit Temperatur Niederschläge Wind Luftdruck Luftfeuchtigkeit
    00:00 +27°C° 0 mm 3 m/S 725 mmHg 59%
    01:00 +26°C° 0 mm 3 m/S 725 mmHg 59%
    02:00 +26°C° 0 mm 3 m/S 725 mmHg 60%
    03:00 +25°C° 0 mm 3 m/S 725 mmHg 61%
    04:00 +25°C° 0 mm 3 m/S 725 mmHg 64%
    05:00 +24°C° 0 mm 3 m/S 725 mmHg 67%
    06:00 +24°C° 0 mm 3 m/S 725 mmHg 69%
    07:00 +26°C° 0 mm 4 m/S 726 mmHg 67%
    08:00 +28°C° 0 mm 4 m/S 726 mmHg 65%
    09:00 +30°C° 0 mm 5 m/S 726 mmHg 64%
    10:00 +32°C° 0 mm 5 m/S 726 mmHg 57%
    11:00 +34°C° 0 mm 4 m/S 726 mmHg 51%
    12:00 +35°C° 0 mm 4 m/S 726 mmHg 44%
    13:00 +36°C° 0 mm 3 m/S 726 mmHg 42%
    14:00 +36°C° 0 mm 3 m/S 725 mmHg 40%
    15:00 +36°C° 0 mm 2 m/S 724 mmHg 37%
    16:00 +35°C° 0 mm 2 m/S 724 mmHg 42%
    17:00 +35°C° 0 mm 2 m/S 723 mmHg 46%
    18:00 +34°C° 0 mm 2 m/S 722 mmHg 50%
    19:00 +31°C° 0 mm 2 m/S 723 mmHg 51%
    20:00 +30°C° 0 mm 2 m/S 723 mmHg 52%
    21:00 +29°C° 0 mm 2 m/S 723 mmHg 53%
    22:00 +29°C° 0 mm 2 m/S 724 mmHg 56%
    23:00 +29°C° 0 mm 3 m/S 724 mmHg 59%

    übermorgen, 26 November, Sonntag

    Zeit Temperatur Niederschläge Wind Luftdruck Luftfeuchtigkeit
    00:00 +28°C° 0 mm 3 m/S 724 mmHg 62%
    01:00 +28°C° 0,1 mm 3 m/S 724 mmHg 65%
    02:00 +28°C° 0,1 mm 4 m/S 723 mmHg 67%
    03:00 +27°C° 0,1 mm 4 m/S 723 mmHg 70%
    04:00 +26°C° 1,2 mm 3 m/S 723 mmHg 76%
    05:00 +26°C° 1,2 mm 3 m/S 723 mmHg 83%
    06:00 +25°C° 1,2 mm 2 m/S 724 mmHg 89%
    07:00 +26°C° 0,9 mm 2 m/S 724 mmHg 86%
    08:00 +27°C° 0,9 mm 2 m/S 725 mmHg 83%
    09:00 +28°C° 0,9 mm 2 m/S 725 mmHg 79%
    10:00 +29°C° 1,1 mm 2 m/S 725 mmHg 73%
    11:00 +30°C° 1,1 mm 2 m/S 724 mmHg 67%
    12:00 +32°C° 1,1 mm 2 m/S 724 mmHg 61%
    13:00 +32°C° 0,1 mm 2 m/S 723 mmHg 58%
    14:00 +34°C° 0,1 mm 2 m/S 723 mmHg 55%
    15:00 +35°C° 0,1 mm 2 m/S 722 mmHg 52%
    16:00 +34°C° 0,2 mm 2 m/S 722 mmHg 56%
    17:00 +32°C° 0,2 mm 1 m/S 721 mmHg 60%
    18:00 +32°C° 0,2 mm 1 m/S 721 mmHg 64%
    19:00 +30°C° 1,5 mm 2 m/S 721 mmHg 69%
    20:00 +29°C° 1,5 mm 2 m/S 722 mmHg 75%
    21:00 +27°C° 1,5 mm 3 m/S 722 mmHg 80%
    22:00 +27°C° 2,3 mm 3 m/S 722 mmHg 82%
    23:00 +27°C° 2,3 mm 3 m/S 723 mmHg 84%

    27 November, Montag

    Zeit Temperatur Niederschläge Wind Luftdruck Luftfeuchtigkeit
    00:00 +26°C° 2,3 mm 3 m/S 723 mmHg 86%
    01:00 +26°C° 2,7 mm 3 m/S 722 mmHg 88%
    02:00 +26°C° 2,7 mm 3 m/S 722 mmHg 89%
    03:00 +25°C° 2,7 mm 2 m/S 722 mmHg 91%
    04:00 +25°C° 1,4 mm 2 m/S 722 mmHg 92%
    05:00 +25°C° 1,4 mm 2 m/S 722 mmHg 93%
    06:00 +25°C° 1,4 mm 2 m/S 723 mmHg 94%
    07:00 +26°C° 1,5 mm 3 m/S 723 mmHg 89%
    08:00 +27°C° 1,5 mm 4 m/S 724 mmHg 84%
    09:00 +28°C° 1,5 mm 5 m/S 724 mmHg 79%
    10:00 +29°C° 2,8 mm 5 m/S 724 mmHg 76%
    11:00 +30°C° 2,8 mm 5 m/S 724 mmHg 73%
    12:00 +32°C° 2,8 mm 5 m/S 724 mmHg 71%
    13:00 +32°C° 2,2 mm 4 m/S 723 mmHg 69%
    14:00 +31°C° 2,2 mm 3 m/S 723 mmHg 67%
    15:00 +33°C° 2,2 mm 3 m/S 723 mmHg 66%
    16:00 +31°C° 2,5 mm 2 m/S 723 mmHg 70%
    17:00 +30°C° 2,5 mm 2 m/S 723 mmHg 75%
    18:00 +28°C° 2,5 mm 1 m/S 723 mmHg 80%
    19:00 +28°C° 1,2 mm 1 m/S 723 mmHg 82%
    20:00 +27°C° 1,2 mm 1 m/S 724 mmHg 83%
    21:00 +27°C° 1,2 mm 1 m/S 724 mmHg 85%
    22:00 +26°C° 0,3 mm 1 m/S 724 mmHg 86%
    23:00 +26°C° 0,3 mm 1 m/S 724 mmHg 87%

    28 November, Dienstag

    Zeit Temperatur Niederschläge Wind Luftdruck Luftfeuchtigkeit
    00:00 +26°C° 0,3 mm 1 m/S 724 mmHg 88%
    01:00 +26°C° 0,1 mm 2 m/S 723 mmHg 89%
    02:00 +25°C° 0,1 mm 2 m/S 723 mmHg 90%
    03:00 +25°C° 0,1 mm 2 m/S 723 mmHg 91%
    04:00 +25°C° 0,1 mm 2 m/S 723 mmHg 92%
    05:00 +25°C° 0,1 mm 2 m/S 724 mmHg 93%
    06:00 +25°C° 0,1 mm 2 m/S 724 mmHg 94%
    07:00 +26°C° 0,5 mm 2 m/S 724 mmHg 89%
    08:00 +27°C° 0,5 mm 2 m/S 725 mmHg 84%
    09:00 +29°C° 0,5 mm 2 m/S 725 mmHg 79%
    10:00 +30°C° 0,3 mm 2 m/S 725 mmHg 74%
    11:00 +31°C° 0,3 mm 2 m/S 725 mmHg 69%
    12:00 +32°C° 0,3 mm 2 m/S 725 mmHg 64%
    13:00 +33°C° 0,7 mm 3 m/S 724 mmHg 64%
    14:00 +33°C° 0,7 mm 3 m/S 724 mmHg 65%
    15:00 +33°C° 0,7 mm 3 m/S 723 mmHg 66%
    16:00 +31°C° 0,3 mm 3 m/S 723 mmHg 69%
    17:00 +31°C° 0,3 mm 2 m/S 723 mmHg 72%
    18:00 +30°C° 0,3 mm 2 m/S 723 mmHg 75%
    19:00 +29°C° 0,2 mm 2 m/S 723 mmHg 77%
    20:00 +28°C° 0,2 mm 2 m/S 723 mmHg 80%
    21:00 +27°C° 0,2 mm 2 m/S 723 mmHg 82%
    22:00 +26°C° 0,1 mm 2 m/S 723 mmHg 82%
    23:00 +26°C° 0,1 mm 2 m/S 723 mmHg 82%

    29 November, Mittwoch

    Zeit Temperatur Niederschläge Wind Luftdruck Luftfeuchtigkeit
    00:00 +25°C° 0,1 mm 2 m/S 723 mmHg 82%
    01:00 +24°C° 0 mm 2 m/S 723 mmHg 82%
    02:00 +24°C° 0 mm 2 m/S 722 mmHg 83%
    03:00 +23°C° 0 mm 2 m/S 722 mmHg 83%
    04:00 +23°C° 0 mm 2 m/S 722 mmHg 85%
    05:00 +23°C° 0 mm 2 m/S 723 mmHg 87%
    06:00 +21°C° 0 mm 2 m/S 723 mmHg 89%
    07:00 +24°C° 0 mm 2 m/S 723 mmHg 85%
    08:00 +26°C° 0 mm 2 m/S 724 mmHg 80%
    09:00 +27°C° 0 mm 2 m/S 724 mmHg 75%
    10:00 +29°C° 0 mm 2 m/S 724 mmHg 67%
    11:00 +30°C° 0 mm 2 m/S 723 mmHg 60%
    12:00 +32°C° 0 mm 2 m/S 723 mmHg 52%
    13:00 +33°C° 0 mm 3 m/S 722 mmHg 50%
    14:00 +34°C° 0 mm 3 m/S 722 mmHg 48%
    15:00 +34°C° 0 mm 4 m/S 721 mmHg 46%
    16:00 +33°C° 0 mm 4 m/S 721 mmHg 51%
    17:00 +31°C° 0 mm 3 m/S 720 mmHg 55%
    18:00 +30°C° 0 mm 3 m/S 720 mmHg 60%
    19:00 +29°C° 0 mm 3 m/S 720 mmHg 62%
    20:00 +27°C° 0 mm 2 m/S 721 mmHg 64%
    21:00 +26°C° 0 mm 2 m/S 721 mmHg 66%
    22:00 +25°C° 0 mm 2 m/S 721 mmHg 66%
    23:00 +25°C° 0 mm 2 m/S 721 mmHg 67%
    Mehr zeigen